IRIDIUM 33 DEB, 36012

Orbit data source: Space-Track

IRIDIUM 33 DEB, 36012 is space debris in LEO originally from a launch on Sun, 14 Sep 1997 UTC launched from the Tyuratam Missile And Space Complex (TTMTR). The debris from Iridium 33, an American commercial communications satellite, has been tracked extensively since its accidental collision with the defunct Russian satellite Cosmos 2251 in 2009. This event, occurring at high speed in low Earth orbit (LEO), generated thousands of pieces of space debris, significantly increasing the risk of further collisions. The Iridium 33 debris cloud has impacted space traffic management and orbital debris mitigation strategies, making it a subject of ongoing study in space situational awareness.

Loading next visibility...
Identifier
36012, 1997-051UT
Orbit
LEO
Country
Flag of USUS
Related business
Manufacturer
Unknown
Mission
Spacecraft
Bus & Motor
Unknown
Mass
Unknown
Launch date (UTC)
1997-09-14 (29 years ago)
Launch vehicle
Unknown
Launch site
Tyuratam Missile And Space Complex (TTMTR)
Object type
Payload
Rocket body
Debris
Shape & HBR
Unknown shape, 0.1 m
Radar Cross Section
Medium (>0.1 m² and <1 m²)

Expand to show TLE details & history
Last TLE update: 1 day ago

TLE from 1 day ago
0 IRIDIUM 33 DEB
1 36012U 97051UT  26262.08482470  .00007051  00000-0  24603-2 0  9995
2 36012  86.4402 194.1782 0224596  84.3024 278.3726 14.21979145694657
Epoch: 2026-09-19T02:02Z
TLE epoch observation values (Epoch: 2026-09-19T02:02:08.854Z)
Latitude
-0°
Longitude
165.64288°
Altitude
801.733 km
Speed
7.463 km/s
True Right ascension
12h 56m 42s
True Declination
0° 00' 00"
Sunlit
Object was in daylight at epoch
Visualization orbit readout
Latitude
Unknown
Longitude
Unknown
Altitude
Unknown
Speed
Unknown
Apparent Right ascension
Unknown
Apparent Declination
Unknown
Sunlit
N/A
Visualization observer readout
Local Sidereal Time
03:48:38
Azimuth
Unknown
Elevation
Unknown
Doppler factor
Unknown
Orbital elements
Apogee altitude
977.215 km
Perigee altitude
654.076 km
Semi-major axis
7,193.783 km
Eccentricity
0.02246
Inclination
86.4402°
RAAN
194.1782°
Arg. of periapsis
84.3024°
True anomaly
275.81675°
Mean anomaly
278.3726°
Eccentric anomaly
277.09562°
Mean motion
3.55719 °/min
Orbital period
101.2 mins
BSTAR
0.0024603
Loading maneuver chart data...
Computing Atmospheric mass density...

Documentation

Showing up to 5 results
|